マックホルツ-藤川-岩本彗星

C/2018 V1 ( Machholz-Fujikawa-Iwamoto )

English version
Home page
Updated on February 9, 2019

---------------------------------------------------------------------

・ プロフィール

発見日 2018年11月7日
発見光度 10.5等、12.0等、10等
発見者 Donald E. Machholz, Jr. (Colfax, CA, U.S.A.), Shigehisa Fujikawa (Kan'onji, Kagawa, Japan), Masayuki Iwamoto (Awa, Tokushima, Japan)

・ 写真集

・ 軌道要素

T 2018 Dec. 3.51054 TT                                  MPCW
q   0.3869798            (2000.0)            P               Q
                   Peri.   88.77701     +0.61771192     +0.63876921
                   Node   128.71445     +0.24558701     -0.71080639
e   1.0            Incl.  143.99388     +0.74707362     -0.29449646
From 607 observations 2018 Nov. 8-20.

・ 星図

・ 光度変化

        m1 = 13.5 + 5 logΔ + 15.0 log r(t + 10)

---------------------------------------------------------------------

軌道要素はM.P.E.C. 2018-W46に掲載されたものです。
星図はステラナビゲータ Ver.10 (アストロアーツ) で作成したものです。
光度グラフはComet for Windowsで作成したものです。

---------------------------------------------------------------------

Copyright(C) Seiichi Yoshida (comet@aerith.net). All rights reserved.